This demonstration page uses our WeatherBlox Daily Observations layout. Learn more.

Left ArrowRight Arrow

39.12711, -84.51439

Hourly Observations for September 14, 2021

Temp ( °F °C ) Dew Point ( °F °C ) Humidity (%) Winds ( mph kmh ) Pressure ( in mb ) Visibility ( mi km ) Precip ( " mm )
12:53 am 00:53 Clear 68 20 67 19.4 96 96 Calm 30.06 1018 10 16 0.00 0.00
1:53 am 01:53 Clear 67 19.4 66 18.9 97 97 Calm 30.05 1018 10 16 0.00 0.00
2:53 am 02:53 Clear 66 18.9 66 18.9 100 100 Calm 30.04 1017 8 13 0.00 0.00
3:53 am 03:53 Clear 66 18.9 66 18.9 100 100 Calm 30.03 1017 10 16 0.00 0.00
4:53 am 04:53 Clear with Mist and Fog 66 18.9 66 18.9 100 100 Calm 30.03 1017 6 10 0.00 0.00
5:53 am 05:53 Clear 65 18.3 65 18.3 100 100 Calm 30.03 1017 10 16 0.00 0.00
6:53 am 06:53 Clear 66 18.9 65 18.3 96 96 Calm 30.04 1017 8 13 0.00 0.00
7:53 am 07:53 Mostly Sunny 67 19.4 66 18.9 97 97 Calm 30.05 1018 10 16 0.00 0.00
8:53 am 08:53 Mostly Sunny 71 21.7 68 20 90 90 Calm 30.04 1017 10 16 0.00 0.00
9:53 am 09:53 Sunny 77 25 69 20.6 77 77 S 8 13 30.03 1017 10 16 0.00 0.00
10:53 am 10:53 Sunny 82 27.8 70 21.1 67 67 SSW 6 9 30.02 1017 10 16 0.00 0.00
11:53 am 11:53 Mostly Sunny 85 29.4 69 20.6 59 59 SW 13 20 30.00 1016 10 16 0.00 0.00
12:53 pm 12:53 Mostly Cloudy 86 30 69 20.6 57 57 SW 13 20 29.98 1015 10 16 0.00 0.00
1:53 pm 13:53 Mostly Cloudy 88 31.1 69 20.6 54 54 WSW 12 19 29.96 1014 10 16 0.00 0.00
2:53 pm 14:53 Partly Cloudy 89 31.7 69 20.6 52 52 SSW 16 26 29.93 1014 10 16 0.00 0.00
3:53 pm 15:53 Mostly Sunny 86 30 66 18.9 51 51 S 18 30 29.91 1013 10 16 0.00 0.00
4:53 pm 16:53 Mostly Sunny 88 31.1 66 18.9 48 48 SSW 15 24 29.89 1012 10 16 0.00 0.00
5:53 pm 17:53 Mostly Sunny 86 30 66 18.9 51 51 SSW 15 24 29.88 1012 10 16 0.00 0.00
6:53 pm 18:53 Partly Cloudy 84 28.9 66 18.9 55 55 SSW 13 20 29.88 1012 10 16 0.00 0.00
7:53 pm 19:53 Clear 78 25.6 67 19.4 69 69 S 8 13 29.89 1012 10 16 0.00 0.00
8:53 pm 20:53 Clear 76 24.4 67 19.4 74 74 SSW 7 11 29.88 1012 10 16 0.00 0.00
9:53 pm 21:53 Clear 76 24.4 68 20 77 77 SSW 6 9 29.89 1012 10 16 0.00 0.00
10:53 pm 22:53 Clear 72 22.2 68 20 87 87 SSW 3 6 29.90 1013 10 16 0.00 0.00
11:53 pm 23:53 Partly Cloudy 74 23.3 68 20 82 82 SW 6 9 29.91 1013 10 16 0.00 0.00

Powered by AerisWeather